Precipitable_Water
0.88 0.87 0.86 0.86 0.86 0.84 0.82 0.77 0.72 0.67 0.64 0.64 0.60 0.55 0.51 0.49 0.46 0.44 0.43 0.43 0.43 0.42 0.42 0.43 0.43 0.44 0.46
0.76 0.79 0.79 0.79 0.78 0.72 0.68 0.67 0.62 0.54 0.48 0.44 0.39 0.36 0.36 0.36 0.37 0.36 0.36 0.36 0.37 0.37 0.37 0.38 0.38 0.39 0.39
0.75 0.76 0.72 0.70 0.66 0.59 0.51 0.44 0.38 0.33 0.30 0.27 0.28 0.29 0.30 0.31 0.32 0.33 0.33 0.33 0.34 0.34 0.34 0.34 0.33 0.34 0.35
0.65 0.60 0.55 0.49 0.41 0.32 0.26 0.28 0.24 0.24 0.24 0.26 0.28 0.28 0.28 0.28 0.29 0.30 0.30 0.30 0.30 0.31 0.31 0.31 0.31 0.31 0.31
0.51 0.43 0.34 0.28 0.24 0.24 0.21 0.20 0.19 0.21 0.22 0.23 0.25 0.25 0.26 0.27 0.28 0.28 0.28 0.29 0.30 0.30 0.31 0.31 0.31 0.32 0.33
0.28 0.23 0.20 0.21 0.21 0.19 0.19 0.16 0.15 0.24 0.24 0.24 0.28 0.26 0.27 0.28 0.28 0.28 0.29 0.30 0.31 0.31 0.31 0.31 0.31 0.31 0.32
0.20 0.19 0.19 0.20 0.20 0.17 0.17 0.21 0.21 0.26 0.27 0.23 0.26 0.24 0.26 0.27 0.28 0.30 0.31 0.32 0.32 0.31 0.31 0.31 0.31 0.32 0.32
0.22 0.21 0.21 0.21 0.21 0.23 0.25 0.25 0.26 0.27 0.28 0.20 0.25 0.24 0.27 0.29 0.31 0.32 0.33 0.33 0.34 0.34 0.34 0.34 0.34 0.35 0.35
0.20 0.19 0.20 0.23 0.27 0.26 0.23 0.23 0.22 0.23 0.27 0.24 0.24 0.25 0.27 0.28 0.30 0.32 0.33 0.34 0.35 0.35 0.36 0.37 0.37 0.38 0.37
0.20 0.22 0.24 0.24 0.26 0.27 0.26 0.23 0.23 0.22 0.28 0.25 0.26 0.27 0.23 0.27 0.29 0.31 0.33 0.34 0.36 0.36 0.37 0.38 0.39 0.38 0.36
0.21 0.22 0.23 0.25 0.27 0.28 0.29 0.28 0.26 0.25 0.31 0.31 0.29 0.28 0.27 0.25 0.27 0.31 0.32 0.34 0.36 0.37 0.38 0.38 0.38 0.38 0.35
0.21 0.22 0.24 0.26 0.28 0.30 0.31 0.32 0.33 0.31 0.33 0.33 0.28 0.29 0.27 0.24 0.22 0.27 0.31 0.34 0.36 0.36 0.37 0.38 0.37 0.37 0.37
0.22 0.24 0.26 0.28 0.29 0.29 0.31 0.33 0.33 0.34 0.34 0.34 0.32 0.32 0.30 0.26 0.23 0.24 0.27 0.32 0.35 0.35 0.36 0.36 0.36 0.38 0.36
0.24 0.26 0.27 0.28 0.28 0.30 0.29 0.30 0.29 0.29 0.33 0.34 0.35 0.34 0.29 0.29 0.27 0.24 0.29 0.29 0.34 0.35 0.35 0.37 0.39 0.40 0.41
0.25 0.25 0.26 0.27 0.28 0.30 0.30 0.30 0.27 0.27 0.27 0.32 0.35 0.35 0.34 0.32 0.26 0.27 0.29 0.32 0.36 0.36 0.36 0.35 0.39 0.42 0.43
0.26 0.26 0.26 0.27 0.27 0.29 0.30 0.29 0.27 0.27 0.28 0.31 0.32 0.31 0.32 0.31 0.32 0.28 0.31 0.32 0.36 0.37 0.38 0.36 0.35 0.40 0.43
0.27 0.28 0.28 0.28 0.28 0.28 0.28 0.28 0.27 0.28 0.30 0.31 0.31 0.30 0.24 0.21 0.27 0.34 0.29 0.30 0.34 0.36 0.38 0.37 0.36 0.38 0.42
Wind_Speed
37 38 38 40 41 42 41 42 43 42 43 43 44 44 45 45 46 47 48 49 49 50 51 51 51 51 51
38 38 39 38 38 36 37 39 40 41 42 43 44 45 46 47 48 48 49 50 51 51 52 52 52 53 53
34 33 34 35 35 36 37 38 39 41 43 44 45 46 47 48 49 50 51 52 53 53 54 54 54 54 55
31 32 32 33 34 36 37 38 40 42 44 45 46 47 48 49 50 51 51 52 52 51 51 50 50 50 50
29 30 31 32 33 35 38 40 41 43 42 41 42 44 44 45 46 47 47 47 47 46 45 44 42 41 41
28 30 32 33 35 36 37 37 36 34 35 37 38 38 40 41 41 42 41 41 40 39 38 37 36 37 37
30 32 33 33 32 32 32 31 32 33 35 36 37 38 38 37 37 37 36 35 34 34 33 34 34 36 37
30 30 29 29 27 27 28 30 31 32 34 34 34 34 33 33 33 32 31 31 30 31 32 33 35 36 38
28 27 26 26 26 27 28 28 29 30 31 31 30 31 30 30 28 28 28 29 31 32 33 34 35 37 38
24 23 24 25 26 26 26 27 28 27 26 27 29 29 26 26 26 28 29 30 31 32 34 35 36 36 34
23 24 24 25 25 25 26 26 27 27 28 28 28 28 27 28 27 28 29 30 31 32 33 33 31 30 30
23 24 24 25 26 26 27 27 27 28 29 29 29 28 28 30 29 28 30 31 31 30 29 28 27 27 26
24 25 26 27 27 27 26 26 26 27 28 29 29 29 29 29 30 30 30 29 29 27 25 26 25 25 25
26 27 27 27 26 25 25 25 26 27 27 28 29 28 29 30 31 31 30 28 28 27 26 26 25 24 24
27 27 27 26 25 24 24 25 26 26 27 28 28 29 30 31 30 30 29 28 27 26 26 26 25 24 24
27 26 25 24 24 24 25 25 26 27 28 28 29 30 30 30 30 29 27 27 27 27 26 26 26 25 24
25 23 23 23 24 24 25 26 26 27 28 29 29 29 29 29 30 28 28 27 27 27 26 26 26 26 26
Wind_Direction
279 282 281 282 285 284 283 283 284 285 285 285 285 285 284 282 282 282 282 281 281 280 280 280 279 278 277
280 281 282 284 284 286 287 287 286 286 286 286 286 286 285 284 284 283 282 281 281 281 280 279 279 278 278
279 283 285 285 286 288 289 289 288 288 288 288 288 287 286 286 285 284 283 282 282 281 281 280 279 279 278
281 285 286 286 287 290 291 291 291 291 290 290 290 289 288 288 287 286 284 284 283 283 282 281 280 280 279
283 285 288 290 291 293 293 294 293 293 293 293 293 293 291 290 289 288 287 286 285 284 283 282 281 280 279
286 288 291 293 294 296 297 298 299 298 299 299 298 298 296 294 292 291 290 288 287 285 283 282 281 281 281
289 291 293 296 297 299 301 300 301 302 304 304 303 301 299 296 295 294 292 291 289 287 285 284 283 284 284
291 293 295 297 298 301 302 303 304 306 307 307 307 304 303 300 298 296 294 293 291 290 288 287 286 286 285
294 295 295 297 299 302 304 306 308 309 310 310 311 308 306 304 303 300 298 296 294 293 291 290 289 289 287
297 297 298 300 301 301 304 305 307 310 313 315 316 313 310 308 306 304 302 301 299 297 295 294 293 292 289
297 298 300 301 303 303 303 304 303 304 308 313 317 314 308 309 308 306 305 304 302 300 299 298 296 294 291
297 298 300 301 301 302 302 301 301 303 305 308 314 312 310 309 307 307 307 307 305 304 302 301 300 298 294
298 299 299 301 300 301 300 301 303 305 306 307 311 312 310 309 308 307 309 309 308 306 304 303 303 301 299
298 298 300 299 299 299 300 302 305 307 308 309 311 312 312 310 308 307 307 307 307 305 304 302 303 301 300
298 299 298 298 298 298 299 302 304 307 310 311 312 313 314 312 311 308 308 307 307 304 304 302 301 302 301
299 298 298 298 298 298 299 301 303 307 309 310 312 315 315 315 312 311 310 308 308 306 305 303 302 303 302
297 296 297 299 299 299 299 301 303 306 309 310 311 313 316 317 318 313 312 311 310 308 306 303 301 301 303